This is the latest recevied weather packets stored in our database for station/object KG2V. If no packets are shown the sender has not sent any weather packets the latest 10 day(s).
| Time | Temp. | Humidity | Pressure | Rain* | Wind** | Luminosity | Snow |
|---|---|---|---|---|---|---|---|
| 1777665511 | 6.11° C | 91% | 1007.7 hPa | 0 mm | - | 162 W/m² | - |
| 1777665206 | 5.56° C | 90% | 1008 hPa | 0 mm | - | 164 W/m² | - |
| 1777664903 | 5.56° C | 91% | 1008 hPa | 0 mm | - | 134 W/m² | - |
| 1777664600 | 5.56° C | 91% | 1008 hPa | 0 mm | - | 130 W/m² | - |
| 1777664296 | 5.56° C | 91% | 1008.3 hPa | 0 mm | - | 141 W/m² | - |
| 1777663995 | 5.56° C | 91% | 1008 hPa | 0 mm | - | 140 W/m² | - |
| 1777663692 | 5.56° C | 91% | 1008 hPa | 0 mm | - | 140 W/m² | - |
| 1777663389 | 5.56° C | 91% | 1008.2 hPa | 0 mm | - | 140 W/m² | - |
| 1777663086 | 5.56° C | 91% | 1008.2 hPa | 1.78 mm | - | 187 W/m² | - |
| 1777662782 | 5.56° C | 91% | 1008.4 hPa | 1.78 mm | - | 161 W/m² | - |
| 1777662479 | 5.56° C | 90% | 1008.3 hPa | 1.27 mm | - | 138 W/m² | - |
| 1777662175 | 6.11° C | 88% | 1008.2 hPa | 1.27 mm | - | 64 W/m² | - |
| 1777661870 | 6.67° C | 87% | 1008.3 hPa | 0 mm | - | 78 W/m² | - |
| 1777661566 | 6.67° C | 87% | 1008.3 hPa | 0 mm | - | 60 W/m² | - |
| 1777661263 | 6.11° C | 86% | 1008.4 hPa | 0 mm | - | 57 W/m² | - |
| 1777660958 | 6.11° C | 86% | 1008.6 hPa | 0 mm | - | 63 W/m² | - |
| 1777660654 | 6.67° C | 87% | 1008.4 hPa | 0 mm | - | 54 W/m² | - |
| 1777660352 | 6.67° C | 87% | 1008.6 hPa | 1.78 mm | - | 47 W/m² | - |
| 1777660048 | 6.67° C | 86% | 1008.7 hPa | 1.78 mm | - | 39 W/m² | - |
| 1777659745 | 6.67° C | 85% | 1008.5 hPa | 0 mm | - | 43 W/m² | - |
| 1777659441 | 6.67° C | 82% | 1008.4 hPa | 0 mm | - | 34 W/m² | - |
| 1777659139 | 6.67° C | 83% | 1008.5 hPa | 0 mm | - | 51 W/m² | - |
| 1777658837 | 6.67° C | 82% | 1008.5 hPa | 0 mm | - | 60 W/m² | - |
| 1777658532 | 7.22° C | 82% | 1008.4 hPa | 1.27 mm | - | 63 W/m² | - |
| 1777658229 | 7.22° C | 81% | 1008.5 hPa | 1.27 mm | - | 57 W/m² | - |
* Rain latest hour (hover to see other rain measurements)
** Current wind speed in m/s (hover to see current wind gust speed)